Weather History for Homer, AK

Change the Weather History Date:

Wednesday, September 4, 2013

  Actual Average Record
Temperature  
Mean Temperature 52 °F -  
Max Temperature 59 °F 57 °F 66 °F (1979)
Min Temperature 46 °F 43 °F 32 °F (1936)
Degree Days  
Heating Degree Days 12    
Growing Degree Days 2 (Base 50)    
Moisture  
Dew Point 45 °F    
Average Humidity 70    
Maximum Humidity 80    
Minimum Humidity 59    
Precipitation  
Precipitation 0.05 in - - ()
Sea Level Pressure  
Sea Level Pressure 29.60 in    
Wind  
Wind Speed 4 mph (SW)    
Max Wind Speed 14 mph    
Max Gust Speed -    
Visibility 10 miles    
Events Rain    
Averages and records for this station are not official NWS values.
T = Trace of Precipitation, MM = Missing Value Source: NWS Daily Summary

Daily Weather History Graph

Daily Weather History Graph

Search for Another Location

Airport:

Trip Planner

Search our weather history database for the weather conditions in past years. The results will help you decide how hot, cold, wet, or windy it might be!

Date:

Astronomy

Sep. 04, 2013 Rise Set
Actual Time 7:09 AM AKDT 8:58 PM AKDT
Civil Twilight 6:26 AM AKDT 9:41 PM AKDT
Nautical Twilight 5:30 AM AKDT 10:36 PM AKDT
Astronomical Twilight 4:22 AM AKDT 11:43 PM AKDT
Moon 6:35 AM AKDT (9/4) 8:11 PM AKDT (9/4)
Length of Visible Light 15h 15m
Length of Day
13h 48m
Waning Crescent, 0% of the Moon is Illuminated
Sep 4
Waning Crescent
Sep 5
New
Sep 12
First Quarter
Sep 19
Full
Sep 26
Last Quarter

Hourly Weather History & Observations

Time (AKDT) Temp. Dew Point Humidity Pressure Visibility Wind Dir Wind Speed Gust Speed Precip Events Conditions
12:53 AM 55.0 °F 46.0 °F 72% 29.41 in 7.0 mi Calm Calm - 0.01 in Rain Rain
1:53 AM 53.1 °F 46.9 °F 80% 29.42 in 10.0 mi NNE 4.6 mph - 0.04 in   Overcast
2:53 AM 55.9 °F 46.0 °F 69% 29.42 in 10.0 mi Calm Calm - N/A   Overcast
3:53 AM 55.9 °F 46.0 °F 69% 29.42 in 10.0 mi Variable 4.6 mph - N/A   Overcast
4:53 AM 55.0 °F 46.0 °F 72% 29.43 in 10.0 mi SSW 5.8 mph - N/A   Overcast
5:53 AM 54.0 °F 46.9 °F 77% 29.45 in 10.0 mi Calm Calm - N/A   Overcast
6:53 AM 55.0 °F 46.9 °F 74% 29.47 in 10.0 mi SSW 5.8 mph - N/A   Overcast
7:53 AM 55.0 °F 46.0 °F 72% 29.49 in 10.0 mi SSW 4.6 mph - N/A   Overcast
8:53 AM 55.9 °F 46.0 °F 69% 29.51 in 10.0 mi South 4.6 mph - N/A   Overcast
9:53 AM 55.9 °F 46.0 °F 69% 29.54 in 10.0 mi SSW 4.6 mph - N/A   Overcast
10:53 AM 55.9 °F 46.0 °F 69% 29.56 in 10.0 mi SSW 6.9 mph - N/A   Overcast
11:38 AM 55.4 °F 46.4 °F 72% 29.58 in 10.0 mi West 4.6 mph - 0.00 in   Overcast
11:53 AM 57.0 °F 46.9 °F 69% 29.59 in 10.0 mi Calm Calm - 0.00 in   Overcast
12:53 PM 57.0 °F 46.0 °F 67% 29.62 in 10.0 mi WSW 3.5 mph - N/A   Overcast
1:53 PM 57.0 °F 45.0 °F 64% 29.64 in 10.0 mi WSW 6.9 mph - N/A   Overcast
2:53 PM 59.0 °F 48.0 °F 67% 29.67 in 10.0 mi WSW 10.4 mph - 0.00 in   Overcast
3:53 PM 57.9 °F 46.9 °F 67% 29.69 in 10.0 mi WSW 10.4 mph - N/A   Overcast
4:53 PM 57.0 °F 46.0 °F 67% 29.71 in 10.0 mi West 13.8 mph - N/A   Mostly Cloudy
5:53 PM 55.0 °F 46.0 °F 72% 29.72 in 10.0 mi West 9.2 mph - N/A   Partly Cloudy
6:53 PM 55.9 °F 46.0 °F 69% 29.73 in 10.0 mi West 9.2 mph - N/A   Overcast
7:53 PM 54.0 °F 45.0 °F 72% 29.75 in 10.0 mi WSW 11.5 mph - N/A   Scattered Clouds
8:53 PM 54.0 °F 39.9 °F 59% 29.78 in 10.0 mi SW 9.2 mph - N/A   Partly Cloudy
9:53 PM 53.1 °F 41.0 °F 64% 29.80 in 10.0 mi SSW 3.5 mph - N/A   Clear
10:53 PM 46.9 °F 39.9 °F 77% 29.81 in 10.0 mi North - - N/A   Clear
11:53 PM 46.0 °F 37.9 °F 73% 29.82 in 10.0 mi Calm Calm - N/A   Clear